Regional Weather Roundup
Issued by NWS Kansas City/Pleasant Hill, MO

Home | Current Version | Previous Version | Text Only | Print | Product List | Glossary On
Versions: 1 2 3 4 5 6 7 8 9 10 11 12 13 14 15 16 17 18 19 20 21 22 23 24 25 26 27 28 29 30 31 32 33 34 35 36 37 38 39 40 41 42 43 44 45 46 47 48 49 50
706
ASUS43 KEAX 202110
RWREAX

WEATHER ROUNDUP FOR EASTERN KANSAS AND NORTHWEST MISSOURI
NATIONAL WEATHER SERVICE KANSAS CITY/PLEASANT HILL MO
300 PM CST FRI JAN 20 2017

KSZ040-057-103>105-MOZ028-029-037-043-202200-
...KANSAS CITY METROPOLITAN AREA...

CITY           SKY/WX    TMP DP  RH WIND       PRES   REMARKS
K.C. INTL      CLOUDY    49  46  90 E9        29.44S FOG
K.C. DOWNTOWN  CLOUDY    51  49  92 E8        29.43F
LEES SUMMIT    CLOUDY    53  48  83 SE8       29.45S
OLATHE - IXD   CLOUDY    51  48  89 S9        29.44R
OLATHE - OJC   CLOUDY    51  48  89 S5        29.44S
LAWRENCE       CLOUDY    53  49  86 SE7       29.44R

$$

MOZ001>008-011>017-020>025-030>033-038>040-044>046-053-054-202200-
...NORTHERN AND CENTRAL MISSOURI...

CITY           SKY/WX    TMP DP  RH WIND       PRES   REMARKS
ST. JOSEPH     CLOUDY    47  47 100 SE7       29.46R FOG
MOSBY          CLOUDY    50  48  93 E6        29.45F
WARRENSBURG    CLOUDY    54  46  76 SE10      29.46R
WHITEMAN AFB   PTSUNNY   56  54  93 S7        29.45F
CLINTON        CLOUDY    57  48  72 S9        29.45F
SEDALIA        CLOUDY    58  47  66 S12       29.48F
WARSAW         NOT AVBL
CHILLICOTHE      N/A     48  47  96 E8        29.49F
KIRKSVILLE     CLOUDY    47  46  97 E8        29.51F FOG

$$

MOZ041-047>049-056>058-063>065-088>090-097-202200-
...EASTERN AND SOUTHERN MISSOURI...

CITY           SKY/WX    TMP DP  RH WIND       PRES   REMARKS
ST. LOUIS INTL CLOUDY    54  47  77 VRB6      29.57F
SPIRIT OF STL  CLOUDY    54  49  83 CALM      29.56F
COLUMBIA       CLOUDY    52  49  89 SE8       29.50F
JEFFERSON CITY CLOUDY    54  48  80 E10       29.51F
ROLLA          MOSUNNY   55  49  80 S16G22    29.51F
OSAGE BEACH    MOSUNNY   60  48  64 S12G17    29.49F
SPRINGFIELD    SUNNY     66  42  41 S23       29.46F
BRANSON        MOSUNNY   66  43  42 SW8G16    29.52S
JOPLIN         SUNNY     65  41  41 S21G29    29.44S
WEST PLAINS    MOSUNNY   61  50  67 S15G21    29.55F

$$

IAZ060-094-KSZ022-034>040-054-083-096-NEZ052-066-093-202200-
...KANSAS...SOUTHEAST NEBRASKA AND IOWA...

CITY           SKY/WX    TMP DP  RH WIND       PRES   REMARKS
TOPEKA         CLOUDY    51  48  89 NE3       29.42F FOG
MANHATTAN      CLOUDY    50  47  89 S6        29.41F
EMPORIA        CLOUDY    51  47  86 S8        29.41R
CHANUTE        MOSUNNY   57  45  64 SW7       29.42F
WICHITA        CLOUDY    51  44  77 S9        29.41R
OMAHA          DRIZZLE   43  39  86 SE9       29.46F FOG
LINCOLN        CLOUDY    45  43  93 E5        29.44F
FALLS CITY     LGT RAIN  45  45 100 E8        29.44S FOG
LAMONI         CLOUDY    43  42  97 E8        29.47F
DES MOINES     CLOUDY    43  41  93 SE7       29.52F FOG

$$





USA.gov is the U.S. government's official web portal to all federal, state and local government web resources and services.